owner,sensor,date,latitude,longitude,vertical_datum,wind_speed,wind_to_direction,wind_speed_of_gust,qcFlag 
ADCP,ioos:station:wmo:42364:1,2015-05-01T00:30:00Z,29.0600,-88.0900,122.0,99.0,-9999.0,99.0,'11144222,99999999,11144222' 
ADCP,ioos:station:wmo:42364:1,2015-05-01T01:30:00Z,29.0600,-88.0900,122.0,99.0,-9999.0,99.0,'11144222,99999999,11144222' 
ADCP,ioos:station:wmo:42364:1,2015-05-01T02:30:00Z,29.0600,-88.0900,122.0,99.0,-9999.0,99.0,'11144222,99999999,11144222' 
ADCP,ioos:station:wmo:42364:1,2015-05-01T04:30:00Z,29.0600,-88.0900,122.0,99.0,-9999.0,99.0,'11144222,99999999,11144222' 
ADCP,ioos:station:wmo:42364:1,2015-05-01T06:30:00Z,29.0600,-88.0900,122.0,99.0,-9999.0,99.0,'11144222,99999999,11144222' 
ADCP,ioos:station:wmo:42364:1,2015-05-01T07:30:00Z,29.0600,-88.0900,122.0,99.0,-9999.0,99.0,'11144222,99999999,11144222' 
ADCP,ioos:station:wmo:42364:1,2015-05-01T08:30:00Z,29.0600,-88.0900,122.0,99.0,-9999.0,99.0,'11144222,99999999,11144222' 
ADCP,ioos:station:wmo:42364:1,2015-05-01T09:30:00Z,29.0600,-88.0900,122.0,99.0,-9999.0,99.0,'11144222,99999999,11144222' 
ADCP,ioos:station:wmo:42364:1,2015-05-01T10:30:00Z,29.0600,-88.0900,122.0,99.0,-9999.0,99.0,'11144222,99999999,11144222' 
ADCP,ioos:station:wmo:42364:1,2015-05-01T11:30:00Z,29.0600,-88.0900,122.0,99.0,-9999.0,99.0,'11144222,99999999,11144222' 
ADCP,ioos:station:wmo:42364:1,2015-05-01T12:30:00Z,29.0600,-88.0900,122.0,99.0,-9999.0,99.0,'11144222,99999999,11144222' 
ADCP,ioos:station:wmo:42364:1,2015-05-01T13:30:00Z,29.0600,-88.0900,122.0,99.0,-9999.0,99.0,'11144222,99999999,11144222' 
ADCP,ioos:station:wmo:42364:1,2015-05-01T16:30:00Z,29.0600,-88.0900,122.0,99.0,-9999.0,99.0,'11144222,99999999,11144222' 
ADCP,ioos:station:wmo:42364:1,2015-05-01T17:30:00Z,29.0600,-88.0900,122.0,5.9,353.0,99.0,'11111222,11111222,11144222' 
ADCP,ioos:station:wmo:42364:1,2015-05-01T18:30:00Z,29.0600,-88.0900,122.0,5.9,1.0,99.0,'11111222,11111222,11144222' 
ADCP,ioos:station:wmo:42364:1,2015-05-01T19:30:00Z,29.0600,-88.0900,122.0,5.3,14.0,99.0,'11111222,11111222,11144222' 
ADCP,ioos:station:wmo:42364:1,2015-05-01T21:30:00Z,29.0600,-88.0900,122.0,4.2,11.0,99.0,'11111222,11111222,11144222' 
ADCP,ioos:station:wmo:42364:1,2015-05-01T22:30:00Z,29.0600,-88.0900,122.0,2.9,354.0,99.0,'11111222,11111222,11144222' 
ADCP,ioos:station:wmo:42364:1,2015-05-01T23:30:00Z,29.0600,-88.0900,122.0,2.9,339.0,99.0,'11111222,11111222,11144222' 
ADCP,ioos:station:wmo:42364:1,2015-05-02T00:30:00Z,29.0600,-88.0900,122.0,3.1,328.0,99.0,'11111222,11111222,11144222' 
ADCP,ioos:station:wmo:42364:1,2015-05-02T01:30:00Z,29.0600,-88.0900,122.0,4.1,337.0,99.0,'11111222,11111222,11144222' 
ADCP,ioos:station:wmo:42364:1,2015-05-02T02:30:00Z,29.0600,-88.0900,122.0,4.0,339.0,99.0,'11111222,11111222,11144222' 
ADCP,ioos:station:wmo:42364:1,2015-05-02T03:30:00Z,29.0600,-88.0900,122.0,4.6,326.0,99.0,'11111222,11111222,11144222' 
ADCP,ioos:station:wmo:42364:1,2015-05-02T04:30:00Z,29.0600,-88.0900,122.0,5.2,342.0,99.0,'11111222,11111222,11144222' 
ADCP,ioos:station:wmo:42364:1,2015-05-02T05:30:00Z,29.0600,-88.0900,122.0,6.0,11.0,99.0,'11111222,11111222,11144222' 
ADCP,ioos:station:wmo:42364:1,2015-05-02T06:30:00Z,29.0600,-88.0900,122.0,6.0,32.0,99.0,'11111222,11111222,11144222' 
ADCP,ioos:station:wmo:42364:1,2015-05-02T07:30:00Z,29.0600,-88.0900,122.0,5.5,56.0,99.0,'11111222,11111222,11144222' 
ADCP,ioos:station:wmo:42364:1,2015-05-02T08:30:00Z,29.0600,-88.0900,122.0,5.4,63.0,99.0,'11111222,11111222,11144222' 
ADCP,ioos:station:wmo:42364:1,2015-05-02T09:30:00Z,29.0600,-88.0900,122.0,4.8,68.0,99.0,'11111222,11111222,11144222' 
ADCP,ioos:station:wmo:42364:1,2015-05-02T10:30:00Z,29.0600,-88.0900,122.0,4.5,64.0,99.0,'11111222,11111222,11144222' 
ADCP,ioos:station:wmo:42364:1,2015-05-02T11:30:00Z,29.0600,-88.0900,122.0,4.2,62.0,99.0,'11111222,11111222,11144222' 
ADCP,ioos:station:wmo:42364:1,2015-05-02T12:30:00Z,29.0600,-88.0900,122.0,3.7,60.0,99.0,'11111222,11111222,11144222' 
ADCP,ioos:station:wmo:42364:1,2015-05-02T14:30:00Z,29.0600,-88.0900,122.0,3.1,79.0,99.0,'11111222,11111222,11144222' 
ADCP,ioos:station:wmo:42364:1,2015-05-02T15:30:00Z,29.0600,-88.0900,122.0,2.6,83.0,99.0,'11111222,11111222,11144222' 
ADCP,ioos:station:wmo:42364:1,2015-05-02T16:30:00Z,29.0600,-88.0900,122.0,1.8,80.0,99.0,'11111222,11111222,11144222' 
ADCP,ioos:station:wmo:42364:1,2015-05-02T17:30:00Z,29.0600,-88.0900,122.0,2.2,37.0,99.0,'11111222,11111222,11144222' 
ADCP,ioos:station:wmo:42364:1,2015-05-02T18:30:00Z,29.0600,-88.0900,122.0,2.4,30.0,99.0,'11111222,11111222,11144222' 
ADCP,ioos:station:wmo:42364:1,2015-05-02T19:30:00Z,29.0600,-88.0900,122.0,3.2,26.0,99.0,'11111222,11111222,11144222' 
ADCP,ioos:station:wmo:42364:1,2015-05-02T20:30:00Z,29.0600,-88.0900,122.0,2.3,28.0,99.0,'11111222,11111222,11144222' 
ADCP,ioos:station:wmo:42364:1,2015-05-02T21:30:00Z,29.0600,-88.0900,122.0,2.2,33.0,99.0,'11111222,11111222,11144222' 
ADCP,ioos:station:wmo:42364:1,2015-05-02T22:30:00Z,29.0600,-88.0900,122.0,2.5,37.0,99.0,'11111222,11111222,11144222' 
ADCP,ioos:station:wmo:42364:1,2015-05-02T23:30:00Z,29.0600,-88.0900,122.0,2.0,43.0,99.0,'11111222,11111222,11144222' 
ADCP,ioos:station:wmo:42364:1,2015-05-03T00:30:00Z,29.0600,-88.0900,122.0,2.0,29.0,99.0,'11111222,11111222,11144222' 
ADCP,ioos:station:wmo:42364:1,2015-05-03T01:30:00Z,29.0600,-88.0900,122.0,1.9,21.0,99.0,'11111222,11111222,11144222' 
ADCP,ioos:station:wmo:42364:1,2015-05-03T02:30:00Z,29.0600,-88.0900,122.0,2.5,40.0,99.0,'11111222,11111222,11144222' 
ADCP,ioos:station:wmo:42364:1,2015-05-03T03:30:00Z,29.0600,-88.0900,122.0,1.1,53.0,99.0,'11111222,11111222,11144222' 
ADCP,ioos:station:wmo:42364:1,2015-05-03T04:30:00Z,29.0600,-88.0900,122.0,1.7,100.0,99.0,'11111222,11111222,11144222' 
ADCP,ioos:station:wmo:42364:1,2015-05-03T05:30:00Z,29.0600,-88.0900,122.0,2.6,141.0,99.0,'11111222,11111222,11144222' 
ADCP,ioos:station:wmo:42364:1,2015-05-03T06:30:00Z,29.0600,-88.0900,122.0,2.7,129.0,99.0,'11111222,11111222,11144222' 
ADCP,ioos:station:wmo:42364:1,2015-05-03T07:30:00Z,29.0600,-88.0900,122.0,2.6,138.0,99.0,'11111222,11111222,11144222' 
ADCP,ioos:station:wmo:42364:1,2015-05-03T08:30:00Z,29.0600,-88.0900,122.0,2.6,135.0,99.0,'11111222,11111222,11144222' 
ADCP,ioos:station:wmo:42364:1,2015-05-03T09:30:00Z,29.0600,-88.0900,122.0,1.9,135.0,99.0,'11111222,11111222,11144222' 
ADCP,ioos:station:wmo:42364:1,2015-05-03T10:30:00Z,29.0600,-88.0900,122.0,2.0,148.0,99.0,'11111222,11111222,11144222' 
ADCP,ioos:station:wmo:42364:1,2015-05-03T11:30:00Z,29.0600,-88.0900,122.0,3.6,155.0,99.0,'11111222,11111222,11144222' 
ADCP,ioos:station:wmo:42364:1,2015-05-03T12:30:00Z,29.0600,-88.0900,122.0,3.7,137.0,99.0,'11111222,11111222,11144222' 
ADCP,ioos:station:wmo:42364:1,2015-05-03T13:30:00Z,29.0600,-88.0900,122.0,3.8,126.0,99.0,'11111222,11111222,11144222' 
ADCP,ioos:station:wmo:42364:1,2015-05-03T14:30:00Z,29.0600,-88.0900,122.0,4.3,116.0,99.0,'11111222,11111222,11144222' 
ADCP,ioos:station:wmo:42364:1,2015-05-03T16:30:00Z,29.0600,-88.0900,122.0,4.0,117.0,99.0,'11111222,11111222,11144222' 
ADCP,ioos:station:wmo:42364:1,2015-05-03T17:30:00Z,29.0600,-88.0900,122.0,4.1,116.0,99.0,'11111222,11111222,11144222' 
ADCP,ioos:station:wmo:42364:1,2015-05-03T18:30:00Z,29.0600,-88.0900,122.0,4.6,121.0,99.0,'11111222,11111222,11144222' 
ADCP,ioos:station:wmo:42364:1,2015-05-03T19:30:00Z,29.0600,-88.0900,122.0,3.8,115.0,99.0,'11111222,11111222,11144222' 
ADCP,ioos:station:wmo:42364:1,2015-05-03T20:30:00Z,29.0600,-88.0900,122.0,2.6,99.0,99.0,'11111222,11111222,11144222' 
ADCP,ioos:station:wmo:42364:1,2015-05-03T21:30:00Z,29.0600,-88.0900,122.0,4.1,98.0,99.0,'11111222,11111222,11144222' 
ADCP,ioos:station:wmo:42364:1,2015-05-03T22:30:00Z,29.0600,-88.0900,122.0,5.4,92.0,99.0,'11111222,11111222,11144222' 
ADCP,ioos:station:wmo:42364:1,2015-05-03T23:30:00Z,29.0600,-88.0900,122.0,5.6,87.0,99.0,'11111222,11111222,11144222' 
ADCP,ioos:station:wmo:42364:1,2015-05-04T00:30:00Z,29.0600,-88.0900,122.0,7.8,116.0,99.0,'11111222,11111222,11144222' 
ADCP,ioos:station:wmo:42364:1,2015-05-04T01:30:00Z,29.0600,-88.0900,122.0,9.8,127.0,99.0,'11111222,11111222,11144222' 
ADCP,ioos:station:wmo:42364:1,2015-05-04T02:30:00Z,29.0600,-88.0900,122.0,11.1,141.0,99.0,'11111222,11111222,11144222' 
ADCP,ioos:station:wmo:42364:1,2015-05-04T03:30:00Z,29.0600,-88.0900,122.0,12.1,137.0,99.0,'11111222,11111222,11144222' 
ADCP,ioos:station:wmo:42364:1,2015-05-04T04:30:00Z,29.0600,-88.0900,122.0,11.9,136.0,99.0,'11111222,11111222,11144222' 
ADCP,ioos:station:wmo:42364:1,2015-05-04T05:30:00Z,29.0600,-88.0900,122.0,11.6,131.0,99.0,'11111222,11111222,11144222' 
ADCP,ioos:station:wmo:42364:1,2015-05-04T06:30:00Z,29.0600,-88.0900,122.0,9.8,134.0,99.0,'11111222,11111222,11144222' 
ADCP,ioos:station:wmo:42364:1,2015-05-04T07:30:00Z,29.0600,-88.0900,122.0,7.8,136.0,99.0,'11111222,11111222,11144222' 
ADCP,ioos:station:wmo:42364:1,2015-05-04T08:30:00Z,29.0600,-88.0900,122.0,7.1,140.0,99.0,'11111222,11111222,11144222' 
ADCP,ioos:station:wmo:42364:1,2015-05-04T09:30:00Z,29.0600,-88.0900,122.0,7.2,134.0,99.0,'11111222,11111222,11144222' 
ADCP,ioos:station:wmo:42364:1,2015-05-04T10:30:00Z,29.0600,-88.0900,122.0,8.7,124.0,99.0,'11111222,11111222,11144222' 
ADCP,ioos:station:wmo:42364:1,2015-05-04T11:30:00Z,29.0600,-88.0900,122.0,8.6,122.0,99.0,'11111222,11111222,11144222' 
ADCP,ioos:station:wmo:42364:1,2015-05-04T12:30:00Z,29.0600,-88.0900,122.0,9.0,121.0,99.0,'11111222,11111222,11144222' 
ADCP,ioos:station:wmo:42364:1,2015-05-04T13:30:00Z,29.0600,-88.0900,122.0,9.5,121.0,99.0,'11111222,11111222,11144222' 
ADCP,ioos:station:wmo:42364:1,2015-05-04T14:30:00Z,29.0600,-88.0900,122.0,9.8,116.0,99.0,'11111222,11111222,11144222' 
ADCP,ioos:station:wmo:42364:1,2015-05-04T15:30:00Z,29.0600,-88.0900,122.0,9.8,115.0,99.0,'11111222,11111222,11144222' 
ADCP,ioos:station:wmo:42364:1,2015-05-04T16:30:00Z,29.0600,-88.0900,122.0,9.8,112.0,99.0,'11111222,11111222,11144222' 
ADCP,ioos:station:wmo:42364:1,2015-05-04T17:30:00Z,29.0600,-88.0900,122.0,10.8,117.0,99.0,'11111222,11111222,11144222' 
ADCP,ioos:station:wmo:42364:1,2015-05-04T18:30:00Z,29.0600,-88.0900,122.0,10.5,121.0,99.0,'11111222,11111222,11144222' 
ADCP,ioos:station:wmo:42364:1,2015-05-04T19:30:00Z,29.0600,-88.0900,122.0,10.9,120.0,99.0,'11111222,11111222,11144222' 
ADCP,ioos:station:wmo:42364:1,2015-05-04T20:30:00Z,29.0600,-88.0900,122.0,11.4,125.0,99.0,'11111222,11111222,11144222' 
ADCP,ioos:station:wmo:42364:1,2015-05-04T21:30:00Z,29.0600,-88.0900,122.0,10.1,121.0,99.0,'11111222,11111222,11144222' 
ADCP,ioos:station:wmo:42364:1,2015-05-04T22:30:00Z,29.0600,-88.0900,122.0,10.6,115.0,99.0,'11111222,11111222,11144222' 
ADCP,ioos:station:wmo:42364:1,2015-05-04T23:30:00Z,29.0600,-88.0900,122.0,9.7,114.0,99.0,'11111222,11111222,11144222' 
ADCP,ioos:station:wmo:42364:1,2015-05-05T00:30:00Z,29.0600,-88.0900,122.0,9.8,117.0,99.0,'11111222,11111222,11144222' 
ADCP,ioos:station:wmo:42364:1,2015-05-05T01:30:00Z,29.0600,-88.0900,122.0,9.9,120.0,99.0,'11111222,11111222,11144222' 
ADCP,ioos:station:wmo:42364:1,2015-05-05T02:30:00Z,29.0600,-88.0900,122.0,9.3,118.0,99.0,'11111222,11111222,11144222' 
ADCP,ioos:station:wmo:42364:1,2015-05-05T03:30:00Z,29.0600,-88.0900,122.0,9.3,114.0,99.0,'11111222,11111222,11144222' 
ADCP,ioos:station:wmo:42364:1,2015-05-05T04:30:00Z,29.0600,-88.0900,122.0,8.1,111.0,99.0,'11111222,11111222,11144222' 
ADCP,ioos:station:wmo:42364:1,2015-05-05T05:30:00Z,29.0600,-88.0900,122.0,8.0,111.0,99.0,'11111222,11111222,11144222' 
ADCP,ioos:station:wmo:42364:1,2015-05-05T06:30:00Z,29.0600,-88.0900,122.0,7.8,116.0,99.0,'11111222,11111222,11144222' 
ADCP,ioos:station:wmo:42364:1,2015-05-05T07:30:00Z,29.0600,-88.0900,122.0,7.4,119.0,99.0,'11111222,11111222,11144222' 
ADCP,ioos:station:wmo:42364:1,2015-05-05T08:30:00Z,29.0600,-88.0900,122.0,7.5,120.0,99.0,'11111222,11111222,11144222' 
ADCP,ioos:station:wmo:42364:1,2015-05-05T09:30:00Z,29.0600,-88.0900,122.0,8.5,114.0,99.0,'11111222,11111222,11144222' 
ADCP,ioos:station:wmo:42364:1,2015-05-05T10:30:00Z,29.0600,-88.0900,122.0,9.4,110.0,99.0,'11111222,11111222,11144222' 
ADCP,ioos:station:wmo:42364:1,2015-05-05T11:30:00Z,29.0600,-88.0900,122.0,9.4,110.0,99.0,'11111222,11111222,11144222' 
ADCP,ioos:station:wmo:42364:1,2015-05-05T12:30:00Z,29.0600,-88.0900,122.0,9.8,109.0,99.0,'11111222,11111222,11144222' 
ADCP,ioos:station:wmo:42364:1,2015-05-05T13:30:00Z,29.0600,-88.0900,122.0,9.6,107.0,99.0,'11111222,11111222,11144222' 
ADCP,ioos:station:wmo:42364:1,2015-05-05T14:30:00Z,29.0600,-88.0900,122.0,9.1,109.0,99.0,'11111222,11111222,11144222' 
ADCP,ioos:station:wmo:42364:1,2015-05-05T15:30:00Z,29.0600,-88.0900,122.0,8.7,106.0,99.0,'11111222,11111222,11144222' 
ADCP,ioos:station:wmo:42364:1,2015-05-05T16:30:00Z,29.0600,-88.0900,122.0,8.1,100.0,99.0,'11111222,11111222,11144222' 
ADCP,ioos:station:wmo:42364:1,2015-05-05T17:30:00Z,29.0600,-88.0900,122.0,8.3,98.0,99.0,'11111222,11111222,11144222' 
ADCP,ioos:station:wmo:42364:1,2015-05-05T18:30:00Z,29.0600,-88.0900,122.0,8.3,100.0,99.0,'11111222,11111222,11144222' 
ADCP,ioos:station:wmo:42364:1,2015-05-05T19:30:00Z,29.0600,-88.0900,122.0,8.7,96.0,99.0,'11111222,11111222,11144222' 
ADCP,ioos:station:wmo:42364:1,2015-05-05T20:30:00Z,29.0600,-88.0900,122.0,8.5,98.0,99.0,'11111222,11111222,11144222' 
ADCP,ioos:station:wmo:42364:1,2015-05-05T21:30:00Z,29.0600,-88.0900,122.0,8.1,99.0,99.0,'11111222,11111222,11144222' 
ADCP,ioos:station:wmo:42364:1,2015-05-05T22:30:00Z,29.0600,-88.0900,122.0,8.4,99.0,99.0,'11111222,11111222,11144222' 
ADCP,ioos:station:wmo:42364:1,2015-05-05T23:30:00Z,29.0600,-88.0900,122.0,8.7,94.0,99.0,'11111222,11111222,11144222' 
ADCP,ioos:station:wmo:42364:1,2015-05-06T00:30:00Z,29.0600,-88.0900,122.0,7.5,94.0,99.0,'11111222,11111222,11144222' 
ADCP,ioos:station:wmo:42364:1,2015-05-06T03:30:00Z,29.0600,-88.0900,122.0,8.4,110.0,99.0,'11111222,11111222,11144222' 
ADCP,ioos:station:wmo:42364:1,2015-05-06T04:30:00Z,29.0600,-88.0900,122.0,9.1,119.0,99.0,'11111222,11111222,11144222' 
ADCP,ioos:station:wmo:42364:1,2015-05-06T05:30:00Z,29.0600,-88.0900,122.0,8.1,120.0,99.0,'11111222,11111222,11144222' 
ADCP,ioos:station:wmo:42364:1,2015-05-06T06:30:00Z,29.0600,-88.0900,122.0,7.6,120.0,99.0,'11111222,11111222,11144222' 
ADCP,ioos:station:wmo:42364:1,2015-05-06T07:30:00Z,29.0600,-88.0900,122.0,5.1,117.0,99.0,'11111222,11111222,11144222' 
ADCP,ioos:station:wmo:42364:1,2015-05-06T08:30:00Z,29.0600,-88.0900,122.0,5.5,114.0,99.0,'11111222,11111222,11144222' 
ADCP,ioos:station:wmo:42364:1,2015-05-06T09:30:00Z,29.0600,-88.0900,122.0,7.2,104.0,99.0,'11111222,11111222,11144222' 
ADCP,ioos:station:wmo:42364:1,2015-05-06T10:30:00Z,29.0600,-88.0900,122.0,6.1,104.0,99.0,'11111222,11111222,11144222' 
ADCP,ioos:station:wmo:42364:1,2015-05-06T11:30:00Z,29.0600,-88.0900,122.0,9.1,110.0,99.0,'11111222,11111222,11144222' 
ADCP,ioos:station:wmo:42364:1,2015-05-06T12:30:00Z,29.0600,-88.0900,122.0,9.6,113.0,99.0,'11111222,11111222,11144222' 
ADCP,ioos:station:wmo:42364:1,2015-05-06T13:30:00Z,29.0600,-88.0900,122.0,8.9,118.0,99.0,'11111222,11111222,11144222' 
ADCP,ioos:station:wmo:42364:1,2015-05-06T14:30:00Z,29.0600,-88.0900,122.0,9.9,113.0,99.0,'11111222,11111222,11144222' 
ADCP,ioos:station:wmo:42364:1,2015-05-06T15:30:00Z,29.0600,-88.0900,122.0,9.8,118.0,99.0,'11111222,11111222,11144222' 
ADCP,ioos:station:wmo:42364:1,2015-05-06T16:30:00Z,29.0600,-88.0900,122.0,9.6,120.0,99.0,'11111222,11111222,11144222' 
ADCP,ioos:station:wmo:42364:1,2015-05-06T17:30:00Z,29.0600,-88.0900,122.0,9.0,126.0,99.0,'11111222,11111222,11144222' 
ADCP,ioos:station:wmo:42364:1,2015-05-06T18:30:00Z,29.0600,-88.0900,122.0,8.4,121.0,99.0,'11111222,11111222,11144222' 
ADCP,ioos:station:wmo:42364:1,2015-05-06T19:30:00Z,29.0600,-88.0900,122.0,7.9,121.0,99.0,'11111222,11111222,11144222' 
ADCP,ioos:station:wmo:42364:1,2015-05-06T20:30:00Z,29.0600,-88.0900,122.0,7.0,124.0,99.0,'11111222,11111222,11144222' 
ADCP,ioos:station:wmo:42364:1,2015-05-06T21:30:00Z,29.0600,-88.0900,122.0,6.4,120.0,99.0,'11111222,11111222,11144222' 
ADCP,ioos:station:wmo:42364:1,2015-05-06T22:30:00Z,29.0600,-88.0900,122.0,5.5,119.0,99.0,'11111222,11111222,11144222' 
ADCP,ioos:station:wmo:42364:1,2015-05-06T23:30:00Z,29.0600,-88.0900,122.0,5.2,115.0,99.0,'11111222,11111222,11144222' 
ADCP,ioos:station:wmo:42364:1,2015-05-07T00:30:00Z,29.0600,-88.0900,122.0,4.8,116.0,99.0,'11111222,11111222,11144222' 
ADCP,ioos:station:wmo:42364:1,2015-05-07T02:30:00Z,29.0600,-88.0900,122.0,5.4,130.0,99.0,'11111222,11111222,11144222' 
ADCP,ioos:station:wmo:42364:1,2015-05-07T03:30:00Z,29.0600,-88.0900,122.0,5.9,135.0,99.0,'11111222,11111222,11144222' 
ADCP,ioos:station:wmo:42364:1,2015-05-07T04:30:00Z,29.0600,-88.0900,122.0,5.6,147.0,99.0,'11111222,11111222,11144222' 
ADCP,ioos:station:wmo:42364:1,2015-05-07T05:30:00Z,29.0600,-88.0900,122.0,5.8,152.0,99.0,'11111222,11111222,11144222' 
ADCP,ioos:station:wmo:42364:1,2015-05-07T06:30:00Z,29.0600,-88.0900,122.0,6.1,140.0,99.0,'11111222,11111222,11144222' 
ADCP,ioos:station:wmo:42364:1,2015-05-07T07:30:00Z,29.0600,-88.0900,122.0,5.2,153.0,99.0,'11111222,11111222,11144222' 
ADCP,ioos:station:wmo:42364:1,2015-05-07T08:30:00Z,29.0600,-88.0900,122.0,4.1,156.0,99.0,'11111222,11111222,11144222' 
ADCP,ioos:station:wmo:42364:1,2015-05-07T09:30:00Z,29.0600,-88.0900,122.0,3.2,134.0,99.0,'11111222,11111222,11144222' 
ADCP,ioos:station:wmo:42364:1,2015-05-07T10:30:00Z,29.0600,-88.0900,122.0,3.7,135.0,99.0,'11111222,11111222,11144222' 
ADCP,ioos:station:wmo:42364:1,2015-05-07T11:30:00Z,29.0600,-88.0900,122.0,3.7,125.0,99.0,'11111222,11111222,11144222' 
ADCP,ioos:station:wmo:42364:1,2015-05-07T12:30:00Z,29.0600,-88.0900,122.0,3.2,113.0,99.0,'11111222,11111222,11144222' 
ADCP,ioos:station:wmo:42364:1,2015-05-07T13:30:00Z,29.0600,-88.0900,122.0,4.3,109.0,99.0,'11111222,11111222,11144222' 
ADCP,ioos:station:wmo:42364:1,2015-05-07T14:30:00Z,29.0600,-88.0900,122.0,5.2,109.0,99.0,'11111222,11111222,11144222' 
ADCP,ioos:station:wmo:42364:1,2015-05-07T15:30:00Z,29.0600,-88.0900,122.0,5.6,106.0,99.0,'11111222,11111222,11144222' 
ADCP,ioos:station:wmo:42364:1,2015-05-07T16:30:00Z,29.0600,-88.0900,122.0,5.6,110.0,99.0,'11111222,11111222,11144222' 
ADCP,ioos:station:wmo:42364:1,2015-05-07T17:30:00Z,29.0600,-88.0900,122.0,4.9,110.0,99.0,'11111222,11111222,11144222' 
ADCP,ioos:station:wmo:42364:1,2015-05-07T18:30:00Z,29.0600,-88.0900,122.0,4.5,119.0,99.0,'11111222,11111222,11144222' 
ADCP,ioos:station:wmo:42364:1,2015-05-07T19:30:00Z,29.0600,-88.0900,122.0,4.0,125.0,99.0,'11111222,11111222,11144222' 
ADCP,ioos:station:wmo:42364:1,2015-05-07T20:30:00Z,29.0600,-88.0900,122.0,3.5,124.0,99.0,'11111222,11111222,11144222' 
ADCP,ioos:station:wmo:42364:1,2015-05-07T21:30:00Z,29.0600,-88.0900,122.0,3.9,126.0,99.0,'11111222,11111222,11144222' 
ADCP,ioos:station:wmo:42364:1,2015-05-07T22:30:00Z,29.0600,-88.0900,122.0,3.7,136.0,99.0,'11111222,11111222,11144222' 
ADCP,ioos:station:wmo:42364:1,2015-05-07T23:30:00Z,29.0600,-88.0900,122.0,3.8,132.0,99.0,'11111222,11111222,11144222' 
ADCP,ioos:station:wmo:42364:1,2015-05-08T00:30:00Z,29.0600,-88.0900,122.0,4.3,140.0,99.0,'11111222,11111222,11144222' 
ADCP,ioos:station:wmo:42364:1,2015-05-08T01:30:00Z,29.0600,-88.0900,122.0,3.7,146.0,99.0,'11111222,11111222,11144222' 
ADCP,ioos:station:wmo:42364:1,2015-05-08T02:30:00Z,29.0600,-88.0900,122.0,3.7,146.0,99.0,'11111222,11111222,11144222' 
ADCP,ioos:station:wmo:42364:1,2015-05-08T03:30:00Z,29.0600,-88.0900,122.0,3.7,156.0,99.0,'11111222,11111222,11144222' 
ADCP,ioos:station:wmo:42364:1,2015-05-08T04:30:00Z,29.0600,-88.0900,122.0,3.6,160.0,99.0,'11111222,11111222,11144222' 
ADCP,ioos:station:wmo:42364:1,2015-05-08T05:30:00Z,29.0600,-88.0900,122.0,4.0,163.0,99.0,'11111222,11111222,11144222' 
ADCP,ioos:station:wmo:42364:1,2015-05-08T06:30:00Z,29.0600,-88.0900,122.0,4.2,159.0,99.0,'11111222,11111222,11144222' 
ADCP,ioos:station:wmo:42364:1,2015-05-08T08:30:00Z,29.0600,-88.0900,122.0,4.1,161.0,99.0,'11111222,11111222,11144222' 
ADCP,ioos:station:wmo:42364:1,2015-05-08T09:30:00Z,29.0600,-88.0900,122.0,3.6,160.0,99.0,'11111222,11111222,11144222' 
ADCP,ioos:station:wmo:42364:1,2015-05-08T10:30:00Z,29.0600,-88.0900,122.0,2.7,151.0,99.0,'11111222,11111222,11144222' 
ADCP,ioos:station:wmo:42364:1,2015-05-08T12:30:00Z,29.0600,-88.0900,122.0,2.3,118.0,99.0,'11111222,11111222,11144222' 
ADCP,ioos:station:wmo:42364:1,2015-05-08T14:30:00Z,29.0600,-88.0900,122.0,3.2,112.0,99.0,'11111222,11111222,11144222' 
ADCP,ioos:station:wmo:42364:1,2015-05-08T15:30:00Z,29.0600,-88.0900,122.0,3.0,127.0,99.0,'11111222,11111222,11144222' 
ADCP,ioos:station:wmo:42364:1,2015-05-08T16:30:00Z,29.0600,-88.0900,122.0,3.5,111.0,99.0,'11111222,11111222,11144222' 
ADCP,ioos:station:wmo:42364:1,2015-05-08T17:30:00Z,29.0600,-88.0900,122.0,3.6,104.0,99.0,'11111222,11111222,11144222' 
ADCP,ioos:station:wmo:42364:1,2015-05-08T18:30:00Z,29.0600,-88.0900,122.0,3.3,110.0,99.0,'11111222,11111222,11144222' 
ADCP,ioos:station:wmo:42364:1,2015-05-08T19:30:00Z,29.0600,-88.0900,122.0,2.9,112.0,99.0,'11111222,11111222,11144222' 
ADCP,ioos:station:wmo:42364:1,2015-05-08T20:30:00Z,29.0600,-88.0900,122.0,4.7,120.0,99.0,'11111222,11111222,11144222' 
ADCP,ioos:station:wmo:42364:1,2015-05-08T21:30:00Z,29.0600,-88.0900,122.0,4.1,125.0,99.0,'11111222,11111222,11144222' 
ADCP,ioos:station:wmo:42364:1,2015-05-08T22:30:00Z,29.0600,-88.0900,122.0,3.8,132.0,99.0,'11111222,11111222,11144222' 
ADCP,ioos:station:wmo:42364:1,2015-05-08T23:30:00Z,29.0600,-88.0900,122.0,4.1,146.0,99.0,'11111222,11111222,11144222' 
ADCP,ioos:station:wmo:42364:1,2015-05-09T00:30:00Z,29.0600,-88.0900,122.0,4.2,147.0,99.0,'11111222,11111222,11144222' 
ADCP,ioos:station:wmo:42364:1,2015-05-09T01:30:00Z,29.0600,-88.0900,122.0,4.2,145.0,99.0,'11111222,11111222,11144222' 
ADCP,ioos:station:wmo:42364:1,2015-05-09T02:30:00Z,29.0600,-88.0900,122.0,4.1,160.0,99.0,'11111222,11111222,11144222' 
ADCP,ioos:station:wmo:42364:1,2015-05-09T03:30:00Z,29.0600,-88.0900,122.0,3.3,175.0,99.0,'11111222,11111222,11144222' 
ADCP,ioos:station:wmo:42364:1,2015-05-09T04:30:00Z,29.0600,-88.0900,122.0,4.2,197.0,99.0,'11111222,11111222,11144222' 
ADCP,ioos:station:wmo:42364:1,2015-05-09T06:30:00Z,29.0600,-88.0900,122.0,4.3,192.0,99.0,'11111222,11111222,11144222' 
ADCP,ioos:station:wmo:42364:1,2015-05-09T07:30:00Z,29.0600,-88.0900,122.0,2.6,183.0,99.0,'11111222,11111222,11144222' 
ADCP,ioos:station:wmo:42364:1,2015-05-09T08:30:00Z,29.0600,-88.0900,122.0,2.6,196.0,99.0,'11111222,11111222,11144222' 
ADCP,ioos:station:wmo:42364:1,2015-05-09T09:30:00Z,29.0600,-88.0900,122.0,2.1,188.0,99.0,'11111222,11111222,11144222' 
ADCP,ioos:station:wmo:42364:1,2015-05-09T10:30:00Z,29.0600,-88.0900,122.0,1.9,158.0,99.0,'11111222,11111222,11144222' 
ADCP,ioos:station:wmo:42364:1,2015-05-09T11:30:00Z,29.0600,-88.0900,122.0,2.7,143.0,99.0,'11111222,11111222,11144222' 
ADCP,ioos:station:wmo:42364:1,2015-05-09T12:30:00Z,29.0600,-88.0900,122.0,3.7,134.0,99.0,'11111222,11111222,11144222' 
ADCP,ioos:station:wmo:42364:1,2015-05-09T13:30:00Z,29.0600,-88.0900,122.0,5.3,126.0,99.0,'11111222,11111222,11144222' 
ADCP,ioos:station:wmo:42364:1,2015-05-09T14:30:00Z,29.0600,-88.0900,122.0,4.7,135.0,99.0,'11111222,11111222,11144222' 
ADCP,ioos:station:wmo:42364:1,2015-05-09T15:30:00Z,29.0600,-88.0900,122.0,3.6,142.0,99.0,'11111222,11111222,11144222' 
ADCP,ioos:station:wmo:42364:1,2015-05-09T16:30:00Z,29.0600,-88.0900,122.0,4.6,141.0,99.0,'11111222,11111222,11144222' 
ADCP,ioos:station:wmo:42364:1,2015-05-09T17:30:00Z,29.0600,-88.0900,122.0,4.6,144.0,99.0,'11111222,11111222,11144222' 
ADCP,ioos:station:wmo:42364:1,2015-05-09T18:30:00Z,29.0600,-88.0900,122.0,4.9,144.0,99.0,'11111222,11111222,11144222' 
ADCP,ioos:station:wmo:42364:1,2015-05-09T19:30:00Z,29.0600,-88.0900,122.0,4.1,144.0,99.0,'11111222,11111222,11144222' 
ADCP,ioos:station:wmo:42364:1,2015-05-09T20:30:00Z,29.0600,-88.0900,122.0,3.5,143.0,99.0,'11111222,11111222,11144222' 
ADCP,ioos:station:wmo:42364:1,2015-05-09T21:30:00Z,29.0600,-88.0900,122.0,4.4,144.0,99.0,'11111222,11111222,11144222' 